FW2813 Weather Reports


time (UTC)temp
C
wind
direction
speed
KPH
gust
KPH
rain 1hr
cm
rain 24hr
cm
rain mn
cm
humidity
%
barometer
mb
20260504174506 11 268 17.7 38.6 0.00 2.31 0.71 75 1000.2
20260504173006 11 284 20.9 35.4 0.00 2.31 0.71 78 1000.2
20260504171503 11 293 17.7 38.6 0.00 2.31 0.71 79 1000.0
20260504081529 2 262 29.0 43.5 0.08 2.03 0.41 95 983.3
20260504044541 3 252 8.0 22.5 0.05 1.70 0.08 95 976.2
20260504043033 3 288 11.3 25.7 0.05 1.68 0.05 95 975.4
20260504041531 3 255 8.0 17.7 0.05 1.68 0.05 95 974.7
20260504040026 4 278 9.7 14.5 0.05 1.68 0.05 95 974.0
20260504034525 3 115 0.0 3.2 0.05 1.65 0.05 95 973.5
20260504033024 3 115 0.0 9.7 0.05 1.65 0.03 95 973.3
20260504031522 3 79 3.2 14.5 0.05 1.63 0.00 95 973.5
20260504030027 3 89 6.4 22.5 0.05 1.60 1.60 95 974.0
20260504024516 3 113 8.0 32.2 0.05 1.60 1.60 95 974.5
20260504023011 3 88 12.9 29.0 0.05 1.57 1.57 95 975.7
20260504021508 4 191 12.9 30.6 0.03 1.55 1.55 95 976.7
20260504020006 4 134 11.3 25.7 0.00 1.55 1.55 95 977.6
20260504014619 4 77 16.1 35.4 0.03 1.55 1.55 95 978.3
20260504013101 5 104 16.1 33.8 0.03 1.55 1.55 95 979.1
20260504011558 5 133 12.9 27.4 0.05 1.55 1.55 95 980.0
20260504010056 5 112 14.5 35.4 0.08 1.55 1.55 95 980.9
20260504004547 5 86 8.0 17.7 0.08 1.52 1.52 95 981.4
20260504003049 5 73 8.0 24.1 0.13 1.52 1.52 95 982.0
20260504001542 5 60 11.3 20.9 0.10 1.45 1.45 95 982.6
20260504000038 5 30 11.3 45.1 0.13 1.42 1.42 95 983.1
20260503234545 5 43 8.0 30.6 0.15 1.42 1.42 95 983.9
20260503233034 5 32 14.5 54.7 0.23 1.40 1.40 95 984.6
20260503231530 5 16 12.9 33.8 0.36 1.37 1.37 95 985.5
20260503230028 4 30 6.4 27.4 0.41 1.35 1.35 95 986.8
20260503224524 4 119 6.4 29.0 0.46 1.27 1.27 94 987.5
20260503223023 3 38 17.7 32.2 0.43 1.14 1.14 94 988.0
20260503221522 3 53 16.1 35.4 0.43 1.02 1.02 94 989.2
20260503220033 3 48 14.5 35.4 0.51 0.91 0.91 94 990.1
20260503214509 3 48 8.0 19.3 0.46 0.81 0.81 94 991.7
20260503213010 3 31 6.4 30.6 0.38 0.71 0.71 94 992.4
20260503211504 3 72 9.7 32.2 0.30 0.61 0.61 94 993.6
20260503210002 4 99 6.4 25.7 0.15 0.41 0.41 93 994.1
20260503204600 4 105 6.4 30.6 0.15 0.36 0.36 93 994.6
20260503203103 5 38 9.7 22.5 0.15 0.33 0.33 93 994.9
20260503201556 5 126 6.4 27.4 0.20 0.30 0.30 93 995.6
20260503200056 5 128 8.0 24.1 0.18 0.23 0.23 93 996.5
20260503194551 6 34 11.3 27.4 0.23 0.23 0.23 93 996.3
20260503193053 6 95 9.7 22.5 0.15 0.15 0.15 93 997.7
20260503191548 6 70 11.3 22.5 0.10 0.10 0.10 92 997.8
20260503190042 6 33 4.8 16.1 0.05 0.05 0.05 90 999.2
20260503184554 6 82 8.0 22.5 0.00 0.00 0.00 87 999.6
20260503183053 6 345 12.9 25.7 0.00 0.00 0.00 87 999.7
20260503181537 6 45 11.3 22.5 0.00 0.00 0.00 89 1001.5
20260503180033 5 43 4.8 27.4 0.00 0.00 0.00 90 1002.0